TimeEDT,TemperatureF,Dew PointF,Humidity,Sea Level PressureIn,VisibilityMPH,Wind Direction,Wind SpeedMPH,Gust SpeedMPH,PrecipitationIn,Events,Conditions,WindDirDegrees,DateUTC
12:19 AM,59.0,55.4,88,29.76,10.0,South,5.8,-,N/A,,Mostly Cloudy,180,2013-10-20 04:19:00
12:56 AM,60.1,55.9,86,29.74,10.0,South,5.8,-,N/A,,Overcast,190,2013-10-20 04:56:00
1:11 AM,60.8,55.4,82,29.74,10.0,SSW,6.9,-,N/A,,Scattered Clouds,200,2013-10-20 05:11:00
1:56 AM,59.0,55.0,87,29.73,10.0,SSW,4.6,-,N/A,,Partly Cloudy,210,2013-10-20 05:56:00
2:56 AM,60.1,55.9,86,29.72,10.0,SSW,8.1,-,N/A,,Overcast,200,2013-10-20 06:56:00
3:56 AM,60.1,55.9,86,29.71,10.0,SSW,6.9,-,N/A,,Overcast,210,2013-10-20 07:56:00
4:41 AM,60.8,57.2,88,29.71,10.0,SSW,4.6,-,N/A,,Overcast,200,2013-10-20 08:41:00
4:56 AM,61.0,57.0,87,29.71,10.0,SW,5.8,-,N/A,,Overcast,220,2013-10-20 08:56:00
5:32 AM,60.8,57.2,88,29.72,10.0,WSW,8.1,-,N/A,,Mostly Cloudy,240,2013-10-20 09:32:00
5:56 AM,60.1,55.9,86,29.72,10.0,WSW,6.9,-,N/A,,Overcast,250,2013-10-20 09:56:00
6:14 AM,60.8,55.4,82,29.72,10.0,West,6.9,-,N/A,,Mostly Cloudy,280,2013-10-20 10:14:00
6:37 AM,59.0,55.4,88,29.72,10.0,West,5.8,-,N/A,,Scattered Clouds,270,2013-10-20 10:37:00
6:56 AM,57.0,54.0,89,29.73,10.0,WNW,4.6,-,N/A,,Clear,290,2013-10-20 10:56:00
7:56 AM,57.0,51.1,81,29.76,10.0,West,8.1,-,N/A,,Clear,270,2013-10-20 11:56:00
8:56 AM,57.9,46.9,67,29.79,10.0,WNW,11.5,19.6,N/A,,Clear,290,2013-10-20 12:56:00
9:56 AM,59.0,39.9,49,29.81,10.0,NW,11.5,21.9,N/A,,Clear,310,2013-10-20 13:56:00
10:56 AM,60.1,36.0,41,29.82,10.0,WNW,12.7,19.6,N/A,,Clear,300,2013-10-20 14:56:00
11:56 AM,61.0,34.0,36,29.84,10.0,NW,10.4,18.4,N/A,,Clear,310,2013-10-20 15:56:00
12:56 PM,63.0,36.0,37,29.83,10.0,NW,10.4,-,N/A,,Clear,310,2013-10-20 16:56:00
1:56 PM,63.0,34.0,34,29.83,10.0,West,12.7,-,N/A,,Clear,280,2013-10-20 17:56:00
2:56 PM,64.0,32.0,30,29.85,10.0,West,8.1,24.2,N/A,,Clear,260,2013-10-20 18:56:00
3:56 PM,63.0,32.0,31,29.86,10.0,West,12.7,17.3,N/A,,Clear,280,2013-10-20 19:56:00
4:56 PM,62.1,32.0,32,29.88,10.0,WSW,11.5,-,N/A,,Clear,250,2013-10-20 20:56:00
5:56 PM,55.9,43.0,62,29.91,10.0,WSW,6.9,-,N/A,,Clear,240,2013-10-20 21:56:00
6:56 PM,54.0,39.9,59,29.94,10.0,West,4.6,-,N/A,,Clear,270,2013-10-20 22:56:00
7:56 PM,53.1,32.0,45,29.96,10.0,West,4.6,-,N/A,,Clear,280,2013-10-20 23:56:00
8:56 PM,50.0,35.1,57,29.98,10.0,Calm,Calm,-,N/A,,Clear,0,2013-10-21 00:56:00
9:56 PM,42.1,34.0,73,30.00,10.0,Calm,Calm,-,N/A,,Clear,0,2013-10-21 01:56:00
10:56 PM,39.9,33.1,77,30.01,10.0,Calm,Calm,-,N/A,,Clear,0,2013-10-21 02:56:00
11:56 PM,39.9,35.1,83,30.02,10.0,Calm,Calm,-,N/A,,Clear,0,2013-10-21 03:56:00